ZHEDA PIXING 1B

Satellite information

Favourite Embed

Satellite Type and Status

PAYLOADIN ORBIT

Key statistics

Satellite ZHEDA PIXING 1B at a glance.

Uptime

5562

Days in orbit

Revolutions

≈ 14.9

Per day

Orbit

SSO

Sun Synchronous Orbit

Inclination

97.9

Latest

Satellite identification and parameters

Extended collection of information and parameters for ZHEDA PIXING 1B.

Object identification

Identified? True

Debris? False

Object name: ZHEDA PIXING 1B

International designator: 2010-047B

Object number (NORAD): 37166

Object ID (CCSDS): 37166

Country: PEOPLES REPUBLIC OF CHINA (PRC)

Current information (Y/N): Y

RCS size: MEDIUM

Orbital parameters

Period: 96.625 minutes

Inclination: 97.927 deg

SMA: 6975.154 km

Apoapsis: 610.812 km

Periapsis: 583.227 km

RAAN: 319.8059 deg

Eccentricy: 0.00197742

Argument of periapsis: 168.3668 deg

Mean anomaly: 191.8011 deg

Mean motion: 14.90294214 rev/day

Mean motion (dot): 0.00001929 rev/day2

B* drag term: 0.00020386984 1/REarth

Two-line elements (TLE)

Creation date: Dec. 14, 2025, 3:07 a.m.

Reference frame: TEME

Reference center: EARTH

Epoch: Dec. 13, 2025, 3:34 p.m. UTC

TLE line 0: 0 ZHEDA PIXING 1B

TLE line 1: 1 37166U 10047B 25347.64922972 .00001929 00000-0 20387-3 0 9991

TLE line 2: 2 37166 97.9270 319.8059 0019774 168.3668 191.8011 14.90294214822773

Live tracking on map

Real-time ground track for satellite ZHEDA PIXING 1B.

In-orbit conjunctions

There are no conjunctions computed for ZHEDA PIXING 1B, at the moment. Check back to stay up to date, as we update our databases every day.

Go to all conjunctions

Associated space launch

ZHEDA PIXING 1B was lifted into orbit during the mission ‘Long March 2D | Yaogan-11, Zheda Pixing 1B & Zheda Pixing 1C’, on board a Long March 2D space rocket.

The launch took place on Sept. 22, 2010, 2:42 a.m. from Launch Area 94 (SLS-2 / 603).

For more information about the launch, click the button.

Launch to space Long March 2D | Yaogan-11, Zheda Pixing 1B & Zheda Pixing 1C
Long March 2D | Yaogan-11, Zheda Pixing 1B & Zheda Pixing 1C

Agency: N/A

Status: Launch Successful

Launch date: Sept. 22, 2010, 2:42 a.m. UTC

Rocket: Long March 2D

Launch pad: Launch Area 94 (SLS-2 / 603)

Location: Jiuquan Satellite Launch Center, People's Republic of China

...

Latest news about this satellite

There are no fresh news available about this satellite. Check back as we update our databases every day.


Newsletter sign-up

Weekly statistics, charts and insights to help you stay on top of the space industry.